Track STARLINK-1581 now! 10-day predictions STARLINK-1581 is classified as:
1 46042U 20055R 21021.52719990 .00000324 00000-0 40702-4 0 9992 2 46042 53.0604 255.5297 0002646 77.2834 282.8451 15.06399510 26524